Time,TemperatureF,DewpointF,PressureIn,WindDirection,WindDirectionDegrees,WindSpeedMPH,WindSpeedGustMPH,Humidity,HourlyPrecipIn,Conditions,Clouds,dailyrainin,SoftwareType,DateUTC
2013-08-06 00:02:00,65.0,64.0,-100.00,SW,220,2.0,4.0,99,0.00,,,0.00,,2013-08-06 05:02:00,
2013-08-06 00:11:00,65.0,64.0,-100.00,WSW,250,1.0,3.0,99,0.00,,,0.00,,2013-08-06 05:11:00,
2013-08-06 00:22:00,65.0,64.0,-100.00,WSW,250,1.0,3.0,99,0.00,,,0.00,,2013-08-06 05:22:00,
2013-08-06 00:32:00,65.0,64.0,-100.00,WSW,250,1.0,3.0,99,0.00,,,0.00,,2013-08-06 05:32:00,
2013-08-06 00:43:00,65.0,64.0,-100.00,WSW,250,1.0,3.0,99,0.00,,,0.00,,2013-08-06 05:43:00,
2013-08-06 01:00:00,63.0,63.0,-100.00,SSW,200,1.0,3.0,99,0.00,,,0.00,,2013-08-06 06:00:00,
2013-08-06 01:11:00,63.0,63.0,-100.00,South,180,1.0,3.0,99,0.00,,,0.00,,2013-08-06 06:11:00,
2013-08-06 01:22:00,63.0,63.0,-100.00,SSW,200,1.0,3.0,99,0.00,,,0.00,,2013-08-06 06:22:00,
2013-08-06 01:32:00,63.0,63.0,-100.00,SSW,200,1.0,3.0,99,0.00,,,0.00,,2013-08-06 06:32:00,
2013-08-06 01:43:00,63.0,63.0,-100.00,SSW,200,1.0,3.0,99,0.00,,,0.00,,2013-08-06 06:43:00,
2013-08-06 01:52:00,63.0,63.0,-100.00,SSW,200,1.0,3.0,99,0.00,,,0.00,,2013-08-06 06:52:00,
2013-08-06 04:22:00,63.0,63.0,-100.00,NNW,335,2.0,4.0,99,0.00,,,0.01,,2013-08-06 09:22:00,
2013-08-06 04:32:00,63.0,63.0,-100.00,NW,325,3.0,4.0,99,0.00,,,0.01,,2013-08-06 09:32:00,
2013-08-06 04:52:00,61.0,61.0,-100.00,NNE,15,1.0,2.0,99,0.00,,,0.01,,2013-08-06 09:52:00,
2013-08-06 05:52:00,61.0,61.0,-100.00,WSW,240,1.0,2.0,99,0.00,,,0.00,,2013-08-06 10:52:00,
2013-08-06 06:02:00,61.0,61.0,-100.00,WSW,240,1.0,2.0,99,0.00,,,0.00,,2013-08-06 11:02:00,
2013-08-06 06:11:00,60.0,59.0,-100.00,SW,215,3.0,4.0,99,0.00,,,0.00,,2013-08-06 11:11:00,
2013-08-06 07:43:00,63.0,63.0,-100.00,SE,125,1.0,4.0,99,0.00,,,0.00,,2013-08-06 12:43:00,
2013-08-06 08:11:00,67.0,66.0,-100.00,East,85,2.0,2.0,99,0.00,,,0.00,,2013-08-06 13:11:00,
2013-08-06 08:22:00,67.0,66.0,-100.00,East,85,2.0,2.0,99,0.00,,,0.00,,2013-08-06 13:22:00,
2013-08-06 08:42:00,70.0,68.0,-100.00,NE,40,2.0,4.0,92,0.00,,,0.00,,2013-08-06 13:42:00,
2013-08-06 08:53:00,70.0,68.0,-100.00,NE,40,2.0,4.0,89,0.00,,,0.00,,2013-08-06 13:53:00,
2013-08-06 09:01:00,69.0,68.0,-100.00,ESE,110,5.0,6.0,92,0.00,,,0.00,,2013-08-06 14:01:00,
2013-08-06 09:11:00,70.0,68.0,-100.00,ESE,120,6.0,9.0,91,0.00,,,0.00,,2013-08-06 14:11:00,
2013-08-06 09:32:00,70.0,66.0,-100.00,East,100,3.0,6.0,88,0.00,,,0.00,,2013-08-06 14:32:00,
2013-08-06 09:42:00,70.0,66.0,-100.00,East,90,3.0,6.0,87,0.00,,,0.00,,2013-08-06 14:42:00,
2013-08-06 09:53:00,70.0,66.0,-100.00,East,90,3.0,6.0,87,0.00,,,0.00,,2013-08-06 14:53:00,
2013-08-06 10:02:00,70.0,66.0,-100.00,East,90,3.0,6.0,87,0.00,,,0.00,,2013-08-06 15:02:00,
2013-08-06 10:11:00,70.0,66.0,-100.00,East,90,3.0,6.0,87,0.00,,,0.00,,2013-08-06 15:11:00,
2013-08-06 10:22:00,70.0,66.0,-100.00,East,90,3.0,6.0,87,0.00,,,0.00,,2013-08-06 15:22:00,
2013-08-06 14:11:00,81.0,68.0,-100.00,SE,145,6.0,13.0,62,0.00,,,0.00,,2013-08-06 19:11:00,
2013-08-06 14:21:00,82.0,68.0,-100.00,SE,130,9.0,13.0,63,0.00,,,0.00,,2013-08-06 19:21:00,
2013-08-06 14:32:00,81.0,68.0,-100.00,SE,145,7.0,12.0,64,0.00,,,0.00,,2013-08-06 19:32:00,
2013-08-06 15:11:00,82.0,66.0,-100.00,ESE,120,11.0,15.0,57,0.00,,,0.00,,2013-08-06 20:11:00,
2013-08-06 15:32:00,83.0,66.0,-100.00,SSE,165,8.0,14.0,56,0.00,,,0.00,,2013-08-06 20:32:00,
2013-08-06 15:44:00,83.0,64.0,-100.00,SE,130,10.0,14.0,55,0.00,,,0.00,,2013-08-06 20:44:00,
2013-08-06 15:52:00,83.0,66.0,-100.00,ESE,115,8.0,15.0,57,0.00,,,0.00,,2013-08-06 20:52:00,
2013-08-06 16:01:00,84.0,68.0,-100.00,SE,135,6.0,14.0,59,0.00,,,0.00,,2013-08-06 21:01:00,
2013-08-06 16:11:00,84.0,66.0,-100.00,SSE,160,9.0,16.0,55,0.00,,,0.00,,2013-08-06 21:11:00,
2013-08-06 16:32:00,84.0,66.0,-100.00,South,180,10.0,15.0,54,0.00,,,0.00,,2013-08-06 21:32:00,
2013-08-06 16:52:00,83.0,64.0,-100.00,SSE,160,14.0,17.0,52,0.00,,,0.00,,2013-08-06 21:52:00,
2013-08-06 17:01:00,83.0,66.0,-100.00,South,170,9.0,15.0,56,0.00,,,0.00,,2013-08-06 22:01:00,
2013-08-06 17:11:00,83.0,68.0,-100.00,SSW,195,9.0,12.0,58,0.00,,,0.00,,2013-08-06 22:11:00,
2013-08-06 17:43:00,83.0,68.0,-100.00,SSE,165,8.0,14.0,58,0.00,,,0.00,,2013-08-06 22:43:00,
2013-08-06 18:11:00,84.0,68.0,-100.00,SSW,195,7.0,12.0,57,0.00,,,0.00,,2013-08-06 23:11:00,
2013-08-06 18:32:00,83.0,68.0,-100.00,South,190,7.0,10.0,59,0.00,,,0.00,,2013-08-06 23:32:00,
2013-08-06 18:52:00,83.0,66.0,-100.00,South,185,7.0,11.0,58,0.00,,,0.00,,2013-08-06 23:52:00,
2013-08-06 19:01:00,83.0,66.0,-100.00,South,175,6.0,10.0,56,0.00,,,0.00,,2013-08-07 00:01:00,
2013-08-06 19:11:00,82.0,66.0,-100.00,South,180,4.0,9.0,59,0.00,,,0.00,,2013-08-07 00:11:00,
2013-08-06 19:21:00,82.0,66.0,-100.00,South,180,4.0,9.0,59,0.00,,,0.00,,2013-08-07 00:21:00,
2013-08-06 19:32:00,82.0,68.0,-100.00,SE,145,4.0,7.0,61,0.00,,,0.00,,2013-08-07 00:32:00,
2013-08-06 20:01:00,80.0,70.0,-100.00,SE,135,2.0,5.0,70,0.00,,,0.00,,2013-08-07 01:01:00,
2013-08-06 20:11:00,79.0,70.0,-100.00,SE,130,3.0,5.0,74,0.00,,,0.00,,2013-08-07 01:11:00,
2013-08-06 20:32:00,78.0,70.0,-100.00,South,180,2.0,4.0,75,0.00,,,0.00,,2013-08-07 01:32:00,
2013-08-06 20:43:00,78.0,70.0,-100.00,South,180,2.0,4.0,75,0.00,,,0.00,,2013-08-07 01:43:00,
2013-08-06 20:52:00,78.0,70.0,-100.00,South,180,2.0,4.0,75,0.00,,,0.00,,2013-08-07 01:52:00,
2013-08-06 22:43:00,73.0,68.0,-100.00,SSE,160,6.0,7.0,83,0.00,,,0.00,,2013-08-07 03:43:00,
2013-08-06 23:21:00,73.0,66.0,-100.00,SSE,150,6.0,9.0,81,0.00,,,0.00,,2013-08-07 04:21:00,
2013-08-06 23:43:00,73.0,66.0,-100.00,SSE,150,4.0,9.0,81,0.00,,,0.00,,2013-08-07 04:43:00,